Weather History for PAWM - November, 2013

Change the Weather History Date:

Monday, November 18, 2013

  Actual Average (PAKK) Record (PAKK)
Temperature  
Mean Temperature 8 °F -  
Max Temperature 12 °F 18 °F 35 °F (2000)
Min Temperature 1 °F 11 °F -7 °F (2008)
Degree Days  
Heating Degree Days 58    
Moisture  
Dew Point 4 °F    
Average Humidity 83    
Maximum Humidity 87    
Minimum Humidity 77    
Precipitation  
Precipitation 0.00 in - - ()
Sea Level Pressure  
Sea Level Pressure 30.37 in    
Wind  
Wind Speed 7 mph (NNW)    
Max Wind Speed 12 mph    
Max Gust Speed -    
Visibility 10 miles    
Events      
Averages and records for this station are not official NWS values.
T = Trace of Precipitation, MM = Missing Value Source: NWS Daily Summary

Daily Weather History Graph

Daily Weather History Graph

Search for Another Location

Airport or City:

Trip Planner

Search our weather history database for the weather conditions in past years. The results will help you decide how hot, cold, wet, or windy it might be!

Date:

Astronomy

Nov. 18, 2013 Rise Set
Actual Time 10:39 AM AKST 4:37 PM AKST
Civil Twilight 9:34 AM AKST 5:42 PM AKST
Nautical Twilight 8:31 AM AKST 6:45 PM AKST
Astronomical Twilight 7:33 AM AKST 7:43 PM AKST
Moon 5:40 PM AKST (11/18) 11:47 AM AKST (11/18)
Length of Visible Light 8h 07m
Length of Day
5h 58m
Full, 98% of the Moon is Illuminated
Nov 18
Full
Nov 25
Last Quarter
Dec 2
New
Dec 9
First Quarter
Dec 17
Full

Hourly Weather History & Observations

Time (AKST) Temp. Windchill Dew Point Humidity Pressure Visibility Wind Dir Wind Speed Gust Speed Precip Events Conditions
12:58 AM 12.9 °F 3.8 °F 7.0 °F 77% 30.52 in 10.0 mi WNW 5.8 mph - N/A   Mostly Cloudy
1:58 AM 12.0 °F -0.4 °F 7.0 °F 80% 30.50 in 10.0 mi NNW 9.2 mph - N/A   Mostly Cloudy
2:58 AM 12.9 °F -0.2 °F 7.0 °F 77% 30.49 in 10.0 mi NNW 10.4 mph - N/A   Overcast
3:58 AM 12.0 °F 1.5 °F 6.1 °F 77% 30.48 in 10.0 mi NW 6.9 mph - N/A   Overcast
4:58 AM 10.0 °F -2.9 °F 5.0 °F 80% 30.47 in 10.0 mi NNW 9.2 mph - N/A   Partly Cloudy
5:58 AM 10.0 °F 0.4 °F 5.0 °F 80% 30.46 in 10.0 mi NW 5.8 mph - N/A   Mostly Cloudy
6:58 AM 8.1 °F -2.0 °F 3.9 °F 83% 30.45 in 10.0 mi North 5.8 mph - N/A   Clear
7:58 AM 8.1 °F 1.4 °F 3.0 °F 80% 30.44 in 10.0 mi Variable 3.5 mph - N/A   Clear
8:58 AM 7.0 °F -4.5 °F 3.0 °F 84% 30.43 in 10.0 mi North 6.9 mph - N/A   Clear
9:58 AM 7.0 °F -1.7 °F 3.9 °F 87% 30.42 in 9.0 mi North 4.6 mph - N/A   Clear
10:58 AM 7.0 °F -7.5 °F 3.9 °F 87% 30.41 in 8.0 mi NNW 10.4 mph - N/A   Clear
11:58 AM 7.0 °F -6.6 °F 3.9 °F 87% 30.40 in 8.0 mi North 9.2 mph - N/A   Clear
12:58 PM 6.1 °F -0.9 °F 3.0 °F 87% 30.39 in 9.0 mi NW 3.5 mph - N/A   Scattered Clouds
1:58 PM 7.0 °F -4.5 °F 3.9 °F 87% 30.37 in 9.0 mi NW 6.9 mph - N/A   Clear
2:58 PM 8.1 °F -5.3 °F 3.9 °F 83% 30.35 in 9.0 mi North 9.2 mph - N/A   Clear
3:58 PM 8.1 °F -3.2 °F 3.9 °F 83% 30.33 in 9.0 mi NNW 6.9 mph - N/A   Clear
4:58 PM 8.1 °F -2.0 °F 3.9 °F 83% 30.27 in 9.0 mi North 5.8 mph - N/A   Clear
5:58 PM 7.0 °F -1.7 °F 3.0 °F 84% 30.27 in 10.0 mi NNE 4.6 mph - N/A   Clear
6:58 PM 8.1 °F -2.0 °F 3.0 °F 80% 30.25 in 10.0 mi North 5.8 mph - N/A   Clear
7:58 PM 8.1 °F -4.3 °F 3.0 °F 80% 30.24 in 10.0 mi North 8.1 mph - N/A   Clear
8:58 PM 6.1 °F -5.6 °F 1.9 °F 83% 30.24 in 10.0 mi North 6.9 mph - N/A   Clear
9:58 PM 6.1 °F -7.8 °F 1.9 °F 83% 30.22 in 10.0 mi North 9.2 mph - N/A   Clear
10:58 PM 3.0 °F -12.5 °F -0.0 °F 87% 30.23 in 10.0 mi North 10.4 mph - N/A   Clear
11:58 PM 1.0 °F -15.8 °F -2.0 °F 87% 30.22 in 10.0 mi North 11.5 mph - N/A   Clear